Time,TemperatureF,DewpointF,PressureIn,WindDirection,WindDirectionDegrees,WindSpeedMPH,WindSpeedGustMPH,Humidity,HourlyPrecipIn,Conditions,Clouds,dailyrainin,SoftwareType,DateUTC
2013-06-29 00:01:00,67.2,66.8,29.48,SSE,157,3.9,3.9,98,-99.99,,,-99.99,tws,2013-06-29 04:01:00,
2013-06-29 00:03:00,67.2,66.9,29.48,SSE,157,3.1,3.1,98,-99.99,,,-99.99,tws,2013-06-29 04:03:00,
2013-06-29 00:04:00,67.1,66.8,29.48,SSE,157,8.6,8.6,98,-99.99,,,-99.99,tws,2013-06-29 04:04:00,
2013-06-29 00:06:00,67.0,66.6,29.48,South,180,3.9,3.9,98,-99.99,,,-99.99,tws,2013-06-29 04:06:00,
2013-06-29 00:07:00,67.1,66.7,29.48,SSE,157,5.7,5.7,98,-99.99,,,-99.99,tws,2013-06-29 04:07:00,
2013-06-29 00:12:00,66.9,66.5,29.48,SSE,157,6.4,6.4,98,-99.99,,,-99.99,tws,2013-06-29 04:12:00,
2013-06-29 00:17:00,67.0,66.3,29.48,SE,135,2.8,2.8,97,-99.99,,,-99.99,tws,2013-06-29 04:17:00,
2013-06-29 00:22:00,67.0,66.6,29.48,SW,225,4.1,4.1,98,-99.99,,,-99.99,tws,2013-06-29 04:22:00,
2013-06-29 00:27:00,66.6,66.2,29.48,West,270,0.4,0.4,98,-99.99,,,-99.99,tws,2013-06-29 04:27:00,
2013-06-29 00:32:00,67.1,66.7,29.48,WNW,292,0.0,0.0,98,-99.99,,,-99.99,tws,2013-06-29 04:32:00,
2013-06-29 00:37:00,66.3,66.3,29.48,NW,315,0.0,0.0,100,-99.99,,,-99.99,tws,2013-06-29 04:37:00,
2013-06-29 00:42:00,66.1,66.2,29.48,WNW,292,0.0,0.0,100,-99.99,,,-99.99,tws,2013-06-29 04:42:00,
2013-06-29 00:47:00,66.3,66.3,29.48,NW,315,0.0,0.0,99,-99.99,,,-99.99,tws,2013-06-29 04:47:00,
2013-06-29 00:52:00,66.8,66.3,29.48,WSW,247,0.0,0.0,98,-99.99,,,-99.99,tws,2013-06-29 04:52:00,
2013-06-29 00:57:00,66.7,66.4,29.47,North,0,0.0,0.0,98,-99.99,,,-99.99,tws,2013-06-29 04:57:00,
2013-06-29 01:02:00,66.2,66.1,29.48,NW,315,0.0,0.0,99,-99.99,,,-99.99,tws,2013-06-29 05:02:00,
2013-06-29 01:07:00,65.7,65.8,29.48,West,270,0.2,0.2,100,-99.99,,,-99.99,tws,2013-06-29 05:07:00,
2013-06-29 01:13:00,65.8,65.6,29.47,West,270,0.0,0.0,99,-99.99,,,-99.99,tws,2013-06-29 05:13:00,
2013-06-29 01:18:00,65.4,65.5,29.47,WNW,292,0.0,0.0,100,-99.99,,,-99.99,tws,2013-06-29 05:18:00,
2013-06-29 01:23:00,65.8,65.7,29.47,NW,315,0.0,0.0,99,-99.99,,,-99.99,tws,2013-06-29 05:23:00,
2013-06-29 01:28:00,66.5,66.3,29.47,SW,225,0.0,0.0,99,-99.99,,,-99.99,tws,2013-06-29 05:28:00,
2013-06-29 01:33:00,66.7,66.4,29.48,SSW,202,0.0,0.0,99,-99.99,,,-99.99,tws,2013-06-29 05:33:00,
2013-06-29 01:38:00,66.6,66.3,29.47,SW,225,0.0,0.0,99,-99.99,,,-99.99,tws,2013-06-29 05:38:00,
2013-06-29 01:43:00,66.6,66.3,29.47,WSW,247,0.0,0.0,99,-99.99,,,-99.99,tws,2013-06-29 05:43:00,
2013-06-29 01:48:00,66.2,66.1,29.47,WSW,247,1.5,1.5,99,-99.99,,,-99.99,tws,2013-06-29 05:48:00,
2013-06-29 01:53:00,66.0,66.0,29.47,WSW,247,3.5,3.5,100,-99.99,,,-99.99,tws,2013-06-29 05:53:00,
2013-06-29 01:58:00,65.9,66.0,29.47,SW,225,4.1,4.1,100,-99.99,,,-99.99,tws,2013-06-29 05:58:00,
2013-06-29 02:03:00,65.9,65.9,29.47,SW,225,3.3,3.3,100,-99.99,,,-99.99,tws,2013-06-29 06:03:00,
2013-06-29 02:08:00,65.9,66.1,29.46,South,180,1.0,1.0,100,-99.99,,,-99.99,tws,2013-06-29 06:08:00,
2013-06-29 02:13:00,65.9,65.9,29.47,South,180,6.0,6.0,99,-99.99,,,-99.99,tws,2013-06-29 06:13:00,
2013-06-29 02:18:00,66.0,66.2,29.46,WSW,247,1.9,1.9,100,-99.99,,,-99.99,tws,2013-06-29 06:18:00,
2013-06-29 02:23:00,65.8,66.0,29.47,South,180,1.0,1.0,100,-99.99,,,-99.99,tws,2013-06-29 06:23:00,
2013-06-29 02:28:00,65.9,66.1,29.47,WSW,247,0.6,0.6,100,-99.99,,,-99.99,tws,2013-06-29 06:28:00,
2013-06-29 02:33:00,65.8,66.0,29.47,WSW,247,2.6,2.6,100,-99.99,,,-99.99,tws,2013-06-29 06:33:00,
2013-06-29 02:38:00,65.4,65.6,29.47,SSW,202,3.3,3.3,100,-99.99,,,-99.99,tws,2013-06-29 06:38:00,
2013-06-29 02:43:00,65.4,65.7,29.47,South,180,5.0,5.0,100,-99.99,,,-99.99,tws,2013-06-29 06:43:00,
2013-06-29 02:48:00,65.7,65.8,29.47,SSW,202,4.0,4.0,100,-99.99,,,-99.99,tws,2013-06-29 06:48:00,
2013-06-29 02:53:00,65.6,65.7,29.47,South,180,0.4,0.4,100,-99.99,,,-99.99,tws,2013-06-29 06:53:00,
2013-06-29 02:58:00,65.6,65.7,29.47,SSE,157,0.0,0.0,100,-99.99,,,-99.99,tws,2013-06-29 06:58:00,
2013-06-29 03:03:00,65.7,65.8,29.47,SSE,157,0.0,0.0,100,-99.99,,,-99.99,tws,2013-06-29 07:03:00,
2013-06-29 03:08:00,65.6,65.8,29.47,SSE,157,3.1,3.1,100,-99.99,,,-99.99,tws,2013-06-29 07:08:00,
2013-06-29 03:13:00,65.2,65.2,29.47,South,180,2.3,2.3,100,-99.99,,,-99.99,tws,2013-06-29 07:13:00,
2013-06-29 03:18:00,65.1,65.3,29.47,SSE,157,4.5,4.5,100,-99.99,,,-99.99,tws,2013-06-29 07:18:00,
2013-06-29 03:23:00,65.1,65.5,29.47,ESE,112,5.1,5.1,101,-99.99,,,-99.99,tws,2013-06-29 07:23:00,
2013-06-29 03:28:00,65.2,65.7,29.47,SSE,157,4.8,4.8,101,-99.99,,,-99.99,tws,2013-06-29 07:28:00,
2013-06-29 03:33:00,65.1,65.6,29.47,SE,135,0.6,0.6,101,-99.99,,,-99.99,tws,2013-06-29 07:33:00,
2013-06-29 03:38:00,64.9,65.4,29.47,SSE,157,5.2,5.2,101,-99.99,,,-99.99,tws,2013-06-29 07:38:00,
2013-06-29 03:43:00,64.8,65.4,29.47,SSE,157,5.3,5.3,102,-99.99,,,-99.99,tws,2013-06-29 07:43:00,
2013-06-29 03:48:00,64.8,65.1,29.47,South,180,0.8,0.8,101,-99.99,,,-99.99,tws,2013-06-29 07:48:00,
2013-06-29 03:53:00,65.0,65.3,29.48,South,180,0.0,0.0,101,-99.99,,,-99.99,tws,2013-06-29 07:53:00,
2013-06-29 03:58:00,65.1,65.5,29.47,SSE,157,0.0,0.0,101,-99.99,,,-99.99,tws,2013-06-29 07:58:00,
2013-06-29 04:03:00,65.0,65.4,29.48,South,180,0.0,0.0,101,-99.99,,,-99.99,tws,2013-06-29 08:03:00,
2013-06-29 04:08:00,64.7,65.2,29.47,WNW,292,0.0,0.0,101,-99.99,,,-99.99,tws,2013-06-29 08:08:00,
2013-06-29 04:13:00,65.0,65.1,29.48,South,180,0.0,0.0,100,-99.99,,,-99.99,tws,2013-06-29 08:13:00,
2013-06-29 04:18:00,65.1,65.6,29.48,SSW,202,0.0,0.0,101,-99.99,,,-99.99,tws,2013-06-29 08:18:00,
2013-06-29 04:23:00,64.7,65.0,29.48,WSW,247,1.3,1.3,101,-99.99,,,-99.99,tws,2013-06-29 08:23:00,
2013-06-29 04:28:00,64.7,65.2,29.48,West,270,4.6,4.6,102,-99.99,,,-99.99,tws,2013-06-29 08:28:00,
2013-06-29 04:33:00,64.3,64.9,29.48,WSW,247,5.1,5.1,102,-99.99,,,-99.99,tws,2013-06-29 08:33:00,
2013-06-29 04:38:00,63.9,64.2,29.49,West,270,4.4,4.4,101,-99.99,,,-99.99,tws,2013-06-29 08:38:00,
2013-06-29 04:43:00,63.7,64.4,29.49,WSW,247,2.5,2.5,102,-99.99,,,-99.99,tws,2013-06-29 08:43:00,
2013-06-29 04:48:00,63.7,64.4,29.49,WSW,247,0.8,0.8,102,-99.99,,,-99.99,tws,2013-06-29 08:48:00,
2013-06-29 04:53:00,63.7,64.4,29.50,WNW,292,0.0,0.0,102,-99.99,,,-99.99,tws,2013-06-29 08:53:00,
2013-06-29 04:58:00,64.4,65.0,29.50,WNW,292,0.0,0.0,102,-99.99,,,-99.99,tws,2013-06-29 08:58:00,
2013-06-29 05:03:00,64.9,65.2,29.50,SE,135,0.0,0.0,101,-99.99,,,-99.99,tws,2013-06-29 09:03:00,
2013-06-29 05:08:00,64.8,65.0,29.51,SE,135,0.0,0.0,100,-99.99,,,-99.99,tws,2013-06-29 09:08:00,
2013-06-29 05:13:00,64.3,64.6,29.50,SE,135,0.0,0.0,101,-99.99,,,-99.99,tws,2013-06-29 09:13:00,
2013-06-29 05:18:00,64.4,64.8,29.51,WSW,247,0.0,0.0,101,-99.99,,,-99.99,tws,2013-06-29 09:18:00,
2013-06-29 05:23:00,64.5,64.8,29.51,SW,225,0.0,0.0,101,-99.99,,,-99.99,tws,2013-06-29 09:23:00,
2013-06-29 05:28:00,64.9,65.1,29.51,SW,225,0.0,0.0,100,-99.99,,,-99.99,tws,2013-06-29 09:28:00,
2013-06-29 05:33:00,64.2,64.5,29.51,SW,225,0.0,0.0,101,-99.99,,,-99.99,tws,2013-06-29 09:33:00,
2013-06-29 05:38:00,64.9,65.3,29.51,SSW,202,0.0,0.0,101,-99.99,,,-99.99,tws,2013-06-29 09:38:00,
2013-06-29 05:43:00,65.0,65.2,29.51,SSE,157,0.0,0.0,100,-99.99,,,-99.99,tws,2013-06-29 09:43:00,
2013-06-29 05:48:00,65.4,65.2,29.51,South,180,0.0,0.0,99,-99.99,,,-99.99,tws,2013-06-29 09:48:00,
2013-06-29 05:53:00,65.3,65.3,29.51,SSE,157,0.0,0.0,99,-99.99,,,-99.99,tws,2013-06-29 09:53:00,
2013-06-29 05:58:00,64.4,64.7,29.52,SSE,157,3.9,3.9,101,-99.99,,,-99.99,tws,2013-06-29 09:58:00,
2013-06-29 06:03:00,64.7,65.1,29.52,SSE,157,3.9,3.9,101,-99.99,,,-99.99,tws,2013-06-29 10:03:00,
2013-06-29 06:08:00,64.9,65.3,29.52,SSE,157,0.9,0.9,101,-99.99,,,-99.99,tws,2013-06-29 10:08:00,
2013-06-29 06:13:00,65.0,65.2,29.51,SSE,157,0.0,0.0,100,-99.99,,,-99.99,tws,2013-06-29 10:13:00,
2013-06-29 06:18:00,65.2,65.5,29.52,SSE,157,0.0,0.0,100,-99.99,,,-99.99,tws,2013-06-29 10:18:00,
2013-06-29 06:23:00,64.9,65.2,29.52,SSE,157,0.0,0.0,101,-99.99,,,-99.99,tws,2013-06-29 10:23:00,
2013-06-29 06:28:00,65.2,65.5,29.52,SSE,157,0.0,0.0,101,-99.99,,,-99.99,tws,2013-06-29 10:28:00,
2013-06-29 06:33:00,65.6,65.9,29.52,SSE,157,0.9,0.9,101,-99.99,,,-99.99,tws,2013-06-29 10:33:00,
2013-06-29 06:38:00,65.3,65.7,29.53,SSE,157,0.0,0.0,101,-99.99,,,-99.99,tws,2013-06-29 10:38:00,
2013-06-29 06:43:00,65.6,65.9,29.53,South,180,0.6,0.6,101,-99.99,,,-99.99,tws,2013-06-29 10:43:00,
2013-06-29 06:48:00,65.2,65.6,29.53,SSE,157,0.1,0.1,101,-99.99,,,-99.99,tws,2013-06-29 10:48:00,
2013-06-29 06:53:00,65.4,65.8,29.53,SSE,157,1.7,1.7,101,-99.99,,,-99.99,tws,2013-06-29 10:53:00,
2013-06-29 06:58:00,65.6,65.8,29.52,SSE,157,0.0,0.0,100,-99.99,,,-99.99,tws,2013-06-29 10:58:00,
2013-06-29 07:03:00,65.9,66.1,29.53,SSE,157,1.9,1.9,100,-99.99,,,-99.99,tws,2013-06-29 11:03:00,
2013-06-29 07:08:00,66.2,66.1,29.53,South,180,6.0,6.0,99,-99.99,,,-99.99,tws,2013-06-29 11:08:00,
2013-06-29 07:13:00,67.0,66.6,29.53,East,90,4.9,4.9,98,-99.99,,,-99.99,tws,2013-06-29 11:13:00,
2013-06-29 07:18:00,67.2,66.8,29.52,SE,135,0.0,0.0,98,-99.99,,,-99.99,tws,2013-06-29 11:18:00,
2013-06-29 07:23:00,66.7,66.3,29.53,SSE,157,0.6,0.6,98,-99.99,,,-99.99,tws,2013-06-29 11:23:00,
2013-06-29 07:28:00,66.8,66.5,29.53,SSE,157,3.0,3.0,98,-99.99,,,-99.99,tws,2013-06-29 11:28:00,
2013-06-29 07:33:00,66.9,66.3,29.53,South,180,3.4,3.4,97,-99.99,,,-99.99,tws,2013-06-29 11:33:00,
2013-06-29 07:38:00,67.4,66.6,29.54,WSW,247,1.6,1.6,97,-99.99,,,-99.99,tws,2013-06-29 11:38:00,
2013-06-29 07:43:00,67.0,65.8,29.53,SW,225,5.3,5.3,95,-99.99,,,-99.99,tws,2013-06-29 11:43:00,
2013-06-29 07:48:00,68.0,67.0,29.53,WSW,247,0.4,0.4,96,-99.99,,,-99.99,tws,2013-06-29 11:48:00,
2013-06-29 07:53:00,68.4,66.4,29.54,SW,225,2.6,2.6,93,-99.99,,,-99.99,tws,2013-06-29 11:53:00,
2013-06-29 07:58:00,68.4,66.7,29.55,South,180,5.3,5.3,94,-99.99,,,-99.99,tws,2013-06-29 11:58:00,
2013-06-29 08:03:00,67.8,66.1,29.55,SE,135,9.3,9.3,94,-99.99,,,-99.99,tws,2013-06-29 12:03:00,
2013-06-29 08:08:00,67.4,66.1,29.55,South,180,5.9,5.9,95,-99.99,,,-99.99,tws,2013-06-29 12:08:00,
2013-06-29 08:13:00,66.8,65.2,29.55,SW,225,7.1,7.1,94,-99.99,,,-99.99,tws,2013-06-29 12:13:00,
2013-06-29 08:18:00,67.6,65.7,29.54,SW,225,3.1,3.1,93,-99.99,,,-99.99,tws,2013-06-29 12:18:00,
2013-06-29 08:23:00,68.1,66.1,29.55,SSE,157,3.9,3.9,93,-99.99,,,-99.99,tws,2013-06-29 12:23:00,
2013-06-29 08:28:00,68.4,66.1,29.55,SW,225,4.5,4.5,92,-99.99,,,-99.99,tws,2013-06-29 12:28:00,
2013-06-29 08:33:00,68.4,65.9,29.55,South,180,4.8,4.8,91,-99.99,,,-99.99,tws,2013-06-29 12:33:00,
2013-06-29 08:38:00,68.9,66.2,29.55,SE,135,7.9,7.9,91,-99.99,,,-99.99,tws,2013-06-29 12:38:00,
2013-06-29 08:43:00,70.1,66.8,29.55,ESE,112,8.9,8.9,89,-99.99,,,-99.99,tws,2013-06-29 12:43:00,
2013-06-29 08:48:00,70.1,66.6,29.55,SSW,202,7.0,7.0,88,-99.99,,,-99.99,tws,2013-06-29 12:48:00,
2013-06-29 08:53:00,69.7,67.0,29.55,South,180,4.9,4.9,91,-99.99,,,-99.99,tws,2013-06-29 12:53:00,
2013-06-29 08:58:00,69.4,65.8,29.55,SSE,157,13.1,13.1,88,-99.99,,,-99.99,tws,2013-06-29 12:58:00,
2013-06-29 09:03:00,70.7,67.6,29.55,SSE,157,3.5,3.5,89,-99.99,,,-99.99,tws,2013-06-29 13:03:00,
2013-06-29 09:08:00,70.8,67.1,29.55,South,180,8.2,8.2,87,-99.99,,,-99.99,tws,2013-06-29 13:08:00,
2013-06-29 09:13:00,71.0,66.3,29.55,SSW,202,8.5,8.5,84,-99.99,,,-99.99,tws,2013-06-29 13:13:00,
2013-06-29 09:18:00,72.1,66.9,29.55,South,180,9.8,9.8,83,-99.99,,,-99.99,tws,2013-06-29 13:18:00,
2013-06-29 09:23:00,73.5,67.6,29.55,SW,225,10.4,10.4,81,-99.99,,,-99.99,tws,2013-06-29 13:23:00,
2013-06-29 09:28:00,72.9,67.9,29.55,South,180,9.1,9.1,84,-99.99,,,-99.99,tws,2013-06-29 13:28:00,
2013-06-29 09:33:00,74.7,68.4,29.55,ESE,112,10.6,10.6,80,-99.99,,,-99.99,tws,2013-06-29 13:33:00,
2013-06-29 09:38:00,72.5,68.0,29.55,South,180,6.8,6.8,85,-99.99,,,-99.99,tws,2013-06-29 13:38:00,
2013-06-29 09:43:00,72.4,67.4,29.55,SSE,157,7.1,7.1,83,-99.99,,,-99.99,tws,2013-06-29 13:43:00,
2013-06-29 09:48:00,72.2,67.1,29.55,SSE,157,8.5,8.5,83,-99.99,,,-99.99,tws,2013-06-29 13:48:00,
2013-06-29 09:53:00,73.0,66.8,29.55,SW,225,4.9,4.9,80,-99.99,,,-99.99,tws,2013-06-29 13:53:00,
2013-06-29 09:58:00,72.3,66.7,29.55,SSW,202,7.8,7.8,82,-99.99,,,-99.99,tws,2013-06-29 13:58:00,
2013-06-29 10:03:00,73.0,68.2,29.55,South,180,3.1,3.1,84,-99.99,,,-99.99,tws,2013-06-29 14:03:00,
2013-06-29 10:08:00,72.5,67.2,29.55,WSW,247,6.8,6.8,83,-99.99,,,-99.99,tws,2013-06-29 14:08:00,
2013-06-29 10:13:00,72.9,67.2,29.55,WSW,247,8.9,8.9,82,-99.99,,,-99.99,tws,2013-06-29 14:13:00,
2013-06-29 10:18:00,72.9,67.2,29.55,SSW,202,10.4,10.4,82,-99.99,,,-99.99,tws,2013-06-29 14:18:00,
2013-06-29 10:23:00,72.9,67.0,29.55,SW,225,12.0,12.0,81,-99.99,,,-99.99,tws,2013-06-29 14:23:00,
2013-06-29 10:28:00,73.7,67.9,29.55,South,180,10.7,10.7,81,-99.99,,,-99.99,tws,2013-06-29 14:28:00,
2013-06-29 10:33:00,72.5,66.7,29.55,SW,225,12.0,12.0,81,-99.99,,,-99.99,tws,2013-06-29 14:33:00,
2013-06-29 10:38:00,73.5,67.3,29.55,WSW,247,7.1,7.1,80,-99.99,,,-99.99,tws,2013-06-29 14:38:00,
2013-06-29 10:43:00,76.8,68.9,29.56,WSW,247,5.6,5.6,76,-99.99,,,-99.99,tws,2013-06-29 14:43:00,
2013-06-29 10:48:00,74.1,67.3,29.55,WSW,247,9.8,9.8,79,-99.99,,,-99.99,tws,2013-06-29 14:48:00,
2013-06-29 10:53:00,75.1,67.8,29.55,SSE,157,6.8,6.8,77,-99.99,,,-99.99,tws,2013-06-29 14:53:00,
2013-06-29 10:58:00,75.0,68.4,29.55,SSW,202,3.9,3.9,79,-99.99,,,-99.99,tws,2013-06-29 14:58:00,
2013-06-29 11:03:00,75.5,69.3,29.55,SSW,202,5.1,5.1,80,-99.99,,,-99.99,tws,2013-06-29 15:03:00,
2013-06-29 11:08:00,75.9,68.7,29.55,South,180,14.0,14.0,77,-99.99,,,-99.99,tws,2013-06-29 15:08:00,
2013-06-29 11:13:00,75.9,69.2,29.55,South,180,8.3,8.3,79,-99.99,,,-99.99,tws,2013-06-29 15:13:00,
2013-06-29 11:18:00,76.0,69.7,29.56,South,180,1.8,1.8,80,-99.99,,,-99.99,tws,2013-06-29 15:18:00,
2013-06-29 11:24:00,74.8,67.5,29.56,SE,135,6.7,6.7,77,-99.99,,,-99.99,tws,2013-06-29 15:24:00,
2013-06-29 11:29:00,76.4,69.2,29.55,South,180,8.7,8.7,78,-99.99,,,-99.99,tws,2013-06-29 15:29:00,
2013-06-29 11:34:00,75.7,68.3,29.55,SSE,157,14.7,14.7,77,-99.99,,,-99.99,tws,2013-06-29 15:34:00,
2013-06-29 11:39:00,75.7,67.8,29.55,SSW,202,9.1,9.1,76,-99.99,,,-99.99,tws,2013-06-29 15:39:00,
2013-06-29 11:44:00,76.8,68.3,29.56,SSW,202,11.8,11.8,74,-99.99,,,-99.99,tws,2013-06-29 15:44:00,
2013-06-29 11:49:00,77.3,69.6,29.56,SW,225,11.1,11.1,76,-99.99,,,-99.99,tws,2013-06-29 15:49:00,
2013-06-29 11:54:00,77.5,69.4,29.55,West,270,13.8,13.8,75,-99.99,,,-99.99,tws,2013-06-29 15:54:00,
2013-06-29 11:59:00,78.5,69.7,29.55,SW,225,11.5,11.5,74,-99.99,,,-99.99,tws,2013-06-29 15:59:00,
2013-06-29 12:04:00,76.8,69.4,29.55,South,180,5.9,5.9,77,-99.99,,,-99.99,tws,2013-06-29 16:04:00,
2013-06-29 12:09:00,78.0,69.7,29.55,SSW,202,8.4,8.4,75,-99.99,,,-99.99,tws,2013-06-29 16:09:00,
2013-06-29 12:14:00,79.1,69.4,29.55,South,180,12.8,12.8,72,-99.99,,,-99.99,tws,2013-06-29 16:14:00,
2013-06-29 12:19:00,79.2,69.9,29.55,South,180,10.9,10.9,72,-99.99,,,-99.99,tws,2013-06-29 16:19:00,
2013-06-29 12:24:00,78.4,68.5,29.55,West,270,9.6,9.6,71,-99.99,,,-99.99,tws,2013-06-29 16:24:00,
2013-06-29 12:29:00,78.9,69.4,29.55,SW,225,14.0,14.0,72,-99.99,,,-99.99,tws,2013-06-29 16:29:00,
2013-06-29 12:34:00,78.7,68.3,29.56,South,180,14.2,14.2,70,-99.99,,,-99.99,tws,2013-06-29 16:34:00,
2013-06-29 12:39:00,78.2,67.0,29.56,SSW,202,11.2,11.2,68,-99.99,,,-99.99,tws,2013-06-29 16:39:00,
2013-06-29 12:44:00,80.1,70.0,29.56,SW,225,8.2,8.2,71,-99.99,,,-99.99,tws,2013-06-29 16:44:00,
2013-06-29 12:49:00,79.3,68.9,29.55,WSW,247,19.4,19.4,70,-99.99,,,-99.99,tws,2013-06-29 16:49:00,
2013-06-29 12:54:00,79.7,68.9,29.55,SW,225,15.5,15.5,69,-99.99,,,-99.99,tws,2013-06-29 16:54:00,
2013-06-29 12:59:00,78.7,68.9,29.55,WSW,247,7.6,7.6,71,-99.99,,,-99.99,tws,2013-06-29 16:59:00,
2013-06-29 13:04:00,79.7,69.1,29.55,SSE,157,18.9,18.9,69,-99.99,,,-99.99,tws,2013-06-29 17:04:00,
2013-06-29 13:09:00,79.4,69.0,29.55,SW,225,18.6,18.6,70,-99.99,,,-99.99,tws,2013-06-29 17:09:00,
2013-06-29 13:14:00,78.7,67.8,29.55,SE,135,19.2,19.2,68,-99.99,,,-99.99,tws,2013-06-29 17:14:00,
2013-06-29 13:19:00,79.5,68.0,29.55,South,180,24.6,24.6,67,-99.99,,,-99.99,tws,2013-06-29 17:19:00,
2013-06-29 13:24:00,79.4,69.4,29.55,South,180,13.4,13.4,71,-99.99,,,-99.99,tws,2013-06-29 17:24:00,
2013-06-29 13:29:00,80.6,69.6,29.55,South,180,13.1,13.1,68,-99.99,,,-99.99,tws,2013-06-29 17:29:00,
2013-06-29 13:34:00,80.0,68.7,29.55,SSE,157,15.6,15.6,68,-99.99,,,-99.99,tws,2013-06-29 17:34:00,
2013-06-29 13:39:00,80.9,68.0,29.55,WSW,247,19.0,19.0,64,-99.99,,,-99.99,tws,2013-06-29 17:39:00,
2013-06-29 13:44:00,80.6,68.2,29.55,WSW,247,19.5,19.5,65,-99.99,,,-99.99,tws,2013-06-29 17:44:00,
2013-06-29 13:49:00,83.0,70.8,29.55,South,180,12.8,12.8,66,-99.99,,,-99.99,tws,2013-06-29 17:49:00,
2013-06-29 13:54:00,81.5,68.6,29.55,South,180,15.7,15.7,64,-99.99,,,-99.99,tws,2013-06-29 17:54:00,
2013-06-29 13:59:00,80.5,68.8,29.55,SSW,202,16.4,16.4,67,-99.99,,,-99.99,tws,2013-06-29 17:59:00,
2013-06-29 14:04:00,81.3,67.9,29.55,ESE,112,14.3,14.3,63,-99.99,,,-99.99,tws,2013-06-29 18:04:00,
2013-06-29 14:10:00,79.7,67.4,29.55,South,180,16.3,16.3,65,-99.99,,,-99.99,tws,2013-06-29 18:10:00,
2013-06-29 14:15:00,82.9,68.3,29.55,South,180,9.8,9.8,60,-99.99,,,-99.99,tws,2013-06-29 18:15:00,
2013-06-29 14:20:00,82.2,67.2,29.55,SW,225,19.3,19.3,59,-99.99,,,-99.99,tws,2013-06-29 18:20:00,
2013-06-29 14:25:00,83.9,69.8,29.54,SSW,202,15.7,15.7,61,-99.99,,,-99.99,tws,2013-06-29 18:25:00,
2013-06-29 14:30:00,80.9,67.5,29.55,South,180,13.8,13.8,63,-99.99,,,-99.99,tws,2013-06-29 18:30:00,
2013-06-29 14:35:00,82.4,68.9,29.55,WSW,247,10.0,10.0,63,-99.99,,,-99.99,tws,2013-06-29 18:35:00,
2013-06-29 14:40:00,80.1,67.9,29.55,SW,225,15.6,15.6,65,-99.99,,,-99.99,tws,2013-06-29 18:40:00,
2013-06-29 14:46:00,79.3,66.6,29.55,West,270,19.1,19.1,64,-99.99,,,-99.99,tws,2013-06-29 18:46:00,
2013-06-29 14:51:00,83.1,68.3,29.55,SSE,157,17.2,17.2,60,-99.99,,,-99.99,tws,2013-06-29 18:51:00,
2013-06-29 14:56:00,81.9,67.9,29.55,South,180,21.7,21.7,62,-99.99,,,-99.99,tws,2013-06-29 18:56:00,
2013-06-29 15:01:00,81.5,68.2,29.55,South,180,15.0,15.0,63,-99.99,,,-99.99,tws,2013-06-29 19:01:00,
2013-06-29 15:06:00,81.0,67.8,29.55,South,180,9.5,9.5,63,-99.99,,,-99.99,tws,2013-06-29 19:06:00,
2013-06-29 15:11:00,80.9,68.1,29.55,SSW,202,12.5,12.5,64,-99.99,,,-99.99,tws,2013-06-29 19:11:00,
2013-06-29 15:17:00,85.6,70.5,29.55,South,180,11.9,11.9,60,-99.99,,,-99.99,tws,2013-06-29 19:17:00,
2013-06-29 15:23:00,83.9,69.1,29.55,SSW,202,13.8,13.8,60,-99.99,,,-99.99,tws,2013-06-29 19:23:00,
2013-06-29 15:28:00,82.1,67.5,29.55,West,270,13.0,13.0,60,-99.99,,,-99.99,tws,2013-06-29 19:28:00,
2013-06-29 15:33:00,80.6,67.3,29.55,SW,225,14.0,14.0,63,-99.99,,,-99.99,tws,2013-06-29 19:33:00,
2013-06-29 15:38:00,83.0,68.4,29.55,SW,225,9.3,9.3,60,-99.99,,,-99.99,tws,2013-06-29 19:38:00,
2013-06-29 15:43:00,83.0,68.5,29.55,SSW,202,17.3,17.3,61,-99.99,,,-99.99,tws,2013-06-29 19:43:00,
2013-06-29 15:48:00,83.4,69.6,29.55,SE,135,12.2,12.2,62,-99.99,,,-99.99,tws,2013-06-29 19:48:00,
2013-06-29 15:53:00,83.3,67.7,29.55,WSW,247,17.7,17.7,58,-99.99,,,-99.99,tws,2013-06-29 19:53:00,
2013-06-29 15:58:00,83.9,70.0,29.55,SSE,157,11.5,11.5,62,-99.99,,,-99.99,tws,2013-06-29 19:58:00,
2013-06-29 16:03:00,85.2,68.8,29.55,SW,225,14.0,14.0,57,-99.99,,,-99.99,tws,2013-06-29 20:03:00,
2013-06-29 16:08:00,83.9,67.9,29.55,West,270,19.5,19.5,58,-99.99,,,-99.99,tws,2013-06-29 20:08:00,
2013-06-29 16:13:00,83.6,67.9,29.55,SE,135,19.3,19.3,58,-99.99,,,-99.99,tws,2013-06-29 20:13:00,
2013-06-29 16:18:00,82.3,66.7,29.55,SSW,202,23.7,23.7,58,-99.99,,,-99.99,tws,2013-06-29 20:18:00,
2013-06-29 16:23:00,84.8,68.4,29.56,West,270,13.6,13.6,57,-99.99,,,-99.99,tws,2013-06-29 20:23:00,
2013-06-29 16:28:00,81.6,67.0,29.56,SW,225,17.2,17.2,60,-99.99,,,-99.99,tws,2013-06-29 20:28:00,
2013-06-29 16:33:00,84.3,68.7,29.56,SW,225,13.4,13.4,58,-99.99,,,-99.99,tws,2013-06-29 20:33:00,
2013-06-29 16:38:00,81.4,67.2,29.57,SW,225,14.9,14.9,61,-99.99,,,-99.99,tws,2013-06-29 20:38:00,
2013-06-29 16:43:00,81.4,67.4,29.57,SW,225,17.1,17.1,62,-99.99,,,-99.99,tws,2013-06-29 20:43:00,
2013-06-29 16:48:00,83.6,68.3,29.57,WSW,247,14.9,14.9,59,-99.99,,,-99.99,tws,2013-06-29 20:48:00,
2013-06-29 16:53:00,84.0,68.1,29.57,WSW,247,13.6,13.6,58,-99.99,,,-99.99,tws,2013-06-29 20:53:00,
2013-06-29 16:58:00,86.5,69.9,29.57,SE,135,7.1,7.1,57,-99.99,,,-99.99,tws,2013-06-29 20:58:00,
2013-06-29 17:03:00,85.4,69.3,29.57,SW,225,9.1,9.1,58,-99.99,,,-99.99,tws,2013-06-29 21:03:00,
2013-06-29 17:08:00,80.7,67.0,29.57,WSW,247,11.0,11.0,62,-99.99,,,-99.99,tws,2013-06-29 21:08:00,
2013-06-29 17:13:00,79.5,66.4,29.57,SSW,202,11.0,11.0,63,-99.99,,,-99.99,tws,2013-06-29 21:13:00,
2013-06-29 17:18:00,79.5,65.2,29.57,WSW,247,15.6,15.6,61,-99.99,,,-99.99,tws,2013-06-29 21:18:00,
2013-06-29 17:23:00,83.4,67.0,29.57,SW,225,13.3,13.3,57,-99.99,,,-99.99,tws,2013-06-29 21:23:00,
2013-06-29 17:28:00,83.7,67.5,29.57,South,180,9.9,9.9,57,-99.99,,,-99.99,tws,2013-06-29 21:28:00,
2013-06-29 17:33:00,84.0,68.1,29.57,South,180,12.8,12.8,58,-99.99,,,-99.99,tws,2013-06-29 21:33:00,
2013-06-29 17:38:00,83.7,67.9,29.57,SW,225,11.5,11.5,58,-99.99,,,-99.99,tws,2013-06-29 21:38:00,
2013-06-29 17:43:00,83.4,66.7,29.57,WSW,247,17.5,17.5,56,-99.99,,,-99.99,tws,2013-06-29 21:43:00,
2013-06-29 17:48:00,83.4,67.4,29.57,WSW,247,14.3,14.3,57,-99.99,,,-99.99,tws,2013-06-29 21:48:00,
2013-06-29 17:53:00,83.1,67.6,29.57,West,270,11.2,11.2,58,-99.99,,,-99.99,tws,2013-06-29 21:53:00,
2013-06-29 17:58:00,82.7,66.5,29.57,WSW,247,16.8,16.8,57,-99.99,,,-99.99,tws,2013-06-29 21:58:00,
2013-06-29 18:03:00,83.0,66.5,29.57,SW,225,14.9,14.9,57,-99.99,,,-99.99,tws,2013-06-29 22:03:00,
2013-06-29 18:08:00,83.8,67.4,29.57,WSW,247,9.7,9.7,57,-99.99,,,-99.99,tws,2013-06-29 22:08:00,
2013-06-29 18:13:00,83.4,67.5,29.57,West,270,11.3,11.3,58,-99.99,,,-99.99,tws,2013-06-29 22:13:00,
2013-06-29 18:18:00,82.7,66.9,29.57,South,180,13.3,13.3,58,-99.99,,,-99.99,tws,2013-06-29 22:18:00,
2013-06-29 18:23:00,83.7,67.3,29.57,SSW,202,8.0,8.0,57,-99.99,,,-99.99,tws,2013-06-29 22:23:00,
2013-06-29 18:28:00,84.8,67.6,29.57,South,180,10.1,10.1,55,-99.99,,,-99.99,tws,2013-06-29 22:28:00,
2013-06-29 18:33:00,84.2,68.0,29.58,SW,225,7.8,7.8,57,-99.99,,,-99.99,tws,2013-06-29 22:33:00,
2013-06-29 18:38:00,84.5,67.6,29.58,WSW,247,10.4,10.4,56,-99.99,,,-99.99,tws,2013-06-29 22:38:00,
2013-06-29 18:43:00,83.9,67.8,29.58,SSW,202,10.9,10.9,57,-99.99,,,-99.99,tws,2013-06-29 22:43:00,
2013-06-29 18:48:00,83.4,67.4,29.58,SSW,202,9.9,9.9,57,-99.99,,,-99.99,tws,2013-06-29 22:48:00,
2013-06-29 18:53:00,82.2,68.1,29.59,SSW,202,5.3,5.3,61,-99.99,,,-99.99,tws,2013-06-29 22:53:00,
2013-06-29 18:58:00,82.4,67.1,29.59,SSW,202,6.1,6.1,59,-99.99,,,-99.99,tws,2013-06-29 22:58:00,
2013-06-29 19:03:00,82.9,68.1,29.59,SSW,202,5.2,5.2,60,-99.99,,,-99.99,tws,2013-06-29 23:03:00,
2013-06-29 19:08:00,79.7,66.3,29.59,WSW,247,16.4,16.4,62,-99.99,,,-99.99,tws,2013-06-29 23:08:00,
2013-06-29 19:12:00,79.1,66.3,29.59,SW,225,10.0,10.0,64,-99.99,,,-99.99,tws,2013-06-29 23:12:00,
2013-06-29 19:18:00,80.1,66.5,29.59,SSW,202,7.2,7.2,62,-99.99,,,-99.99,tws,2013-06-29 23:18:00,
2013-06-29 19:23:00,80.9,66.4,29.59,SW,225,6.3,6.3,60,-99.99,,,-99.99,tws,2013-06-29 23:23:00,
2013-06-29 19:28:00,81.8,66.7,29.59,West,270,5.8,5.8,59,-99.99,,,-99.99,tws,2013-06-29 23:28:00,
2013-06-29 19:33:00,80.7,66.3,29.59,SSW,202,7.2,7.2,60,-99.99,,,-99.99,tws,2013-06-29 23:33:00,
2013-06-29 19:38:00,80.7,66.5,29.59,SW,225,7.8,7.8,61,-99.99,,,-99.99,tws,2013-06-29 23:38:00,
2013-06-29 19:43:00,78.3,66.0,29.59,SW,225,5.3,5.3,65,-99.99,,,-99.99,tws,2013-06-29 23:43:00,
2013-06-29 19:48:00,77.8,65.5,29.59,WSW,247,6.8,6.8,65,-99.99,,,-99.99,tws,2013-06-29 23:48:00,
2013-06-29 19:53:00,78.6,66.0,29.60,SSE,157,5.8,5.8,64,-99.99,,,-99.99,tws,2013-06-29 23:53:00,
2013-06-29 19:58:00,78.6,65.7,29.60,SSW,202,5.5,5.5,64,-99.99,,,-99.99,tws,2013-06-29 23:58:00,
2013-06-29 20:03:00,77.9,65.5,29.60,SSW,202,7.6,7.6,65,-99.99,,,-99.99,tws,2013-06-30 00:03:00,
2013-06-29 20:08:00,77.1,65.3,29.60,SSW,202,6.4,6.4,66,-99.99,,,-99.99,tws,2013-06-30 00:08:00,
2013-06-29 20:13:00,76.8,65.1,29.61,SW,225,7.5,7.5,66,-99.99,,,-99.99,tws,2013-06-30 00:13:00,
2013-06-29 20:18:00,76.2,65.3,29.61,SW,225,4.1,4.1,68,-99.99,,,-99.99,tws,2013-06-30 00:18:00,
2013-06-29 20:23:00,75.6,65.4,29.61,South,180,1.2,1.2,70,-99.99,,,-99.99,tws,2013-06-30 00:23:00,
2013-06-29 20:28:00,75.5,64.9,29.61,West,270,6.7,6.7,69,-99.99,,,-99.99,tws,2013-06-30 00:28:00,
2013-06-29 20:33:00,75.3,65.2,29.61,SSW,202,5.9,5.9,70,-99.99,,,-99.99,tws,2013-06-30 00:33:00,
2013-06-29 20:38:00,75.0,64.9,29.61,SSW,202,6.6,6.6,70,-99.99,,,-99.99,tws,2013-06-30 00:38:00,
2013-06-29 20:43:00,75.1,64.9,29.61,SSW,202,6.5,6.5,70,-99.99,,,-99.99,tws,2013-06-30 00:43:00,
2013-06-29 20:48:00,75.1,65.0,29.62,South,180,7.3,7.3,70,-99.99,,,-99.99,tws,2013-06-30 00:48:00,
2013-06-29 20:53:00,74.6,64.8,29.62,South,180,6.1,6.1,71,-99.99,,,-99.99,tws,2013-06-30 00:53:00,
2013-06-29 20:58:00,74.2,64.6,29.62,South,180,6.0,6.0,71,-99.99,,,-99.99,tws,2013-06-30 00:58:00,
2013-06-29 21:03:00,74.1,64.6,29.62,South,180,5.2,5.2,71,-99.99,,,-99.99,tws,2013-06-30 01:03:00,
2013-06-29 21:08:00,73.8,64.8,29.62,SSW,202,3.7,3.7,73,-99.99,,,-99.99,tws,2013-06-30 01:08:00,
2013-06-29 21:13:00,73.8,64.9,29.63,South,180,4.4,4.4,73,-99.99,,,-99.99,tws,2013-06-30 01:13:00,
2013-06-29 21:18:00,73.3,64.8,29.64,South,180,5.8,5.8,74,-99.99,,,-99.99,tws,2013-06-30 01:18:00,
2013-06-29 21:23:00,73.2,64.9,29.63,SSE,157,9.3,9.3,74,-99.99,,,-99.99,tws,2013-06-30 01:23:00,
2013-06-29 21:28:00,72.8,64.9,29.64,South,180,7.5,7.5,76,-99.99,,,-99.99,tws,2013-06-30 01:28:00,
2013-06-29 21:33:00,72.4,64.9,29.64,South,180,10.6,10.6,77,-99.99,,,-99.99,tws,2013-06-30 01:33:00,
2013-06-29 21:38:00,72.6,65.1,29.64,South,180,7.8,7.8,76,-99.99,,,-99.99,tws,2013-06-30 01:38:00,
2013-06-29 21:43:00,72.4,64.9,29.64,South,180,9.8,9.8,77,-99.99,,,-99.99,tws,2013-06-30 01:43:00,
2013-06-29 21:48:00,72.3,65.2,29.64,South,180,9.8,9.8,78,-99.99,,,-99.99,tws,2013-06-30 01:48:00,
2013-06-29 21:53:00,72.3,65.4,29.64,SSE,157,9.9,9.9,78,-99.99,,,-99.99,tws,2013-06-30 01:53:00,
2013-06-29 21:58:00,72.1,65.4,29.65,South,180,8.6,8.6,79,-99.99,,,-99.99,tws,2013-06-30 01:58:00,
2013-06-29 22:03:00,71.6,65.6,29.65,SSE,157,10.0,10.0,81,-99.99,,,-99.99,tws,2013-06-30 02:03:00,
2013-06-29 22:09:00,71.9,66.0,29.65,SSE,157,8.8,8.8,81,-99.99,,,-99.99,tws,2013-06-30 02:09:00,
2013-06-29 22:14:00,71.7,66.1,29.65,South,180,8.4,8.4,82,-99.99,,,-99.99,tws,2013-06-30 02:14:00,
2013-06-29 22:19:00,71.6,66.3,29.65,SE,135,2.3,2.3,83,-99.99,,,-99.99,tws,2013-06-30 02:19:00,
2013-06-29 22:24:00,71.5,66.3,29.65,SSE,157,4.1,4.1,83,-99.99,,,-99.99,tws,2013-06-30 02:24:00,
2013-06-29 22:29:00,71.7,66.8,29.66,South,180,3.8,3.8,84,-99.99,,,-99.99,tws,2013-06-30 02:29:00,
2013-06-29 22:34:00,71.6,66.8,29.66,SSW,202,2.8,2.8,84,-99.99,,,-99.99,tws,2013-06-30 02:34:00,
2013-06-29 22:39:00,71.2,66.9,29.66,ESE,112,0.0,0.0,86,-99.99,,,-99.99,tws,2013-06-30 02:39:00,
2013-06-29 22:44:00,70.5,66.7,29.66,NNE,22,0.0,0.0,87,-99.99,,,-99.99,tws,2013-06-30 02:44:00,
2013-06-29 22:49:00,69.9,66.3,29.66,ENE,67,0.0,0.0,88,-99.99,,,-99.99,tws,2013-06-30 02:49:00,
2013-06-29 22:54:00,69.4,66.2,29.66,NE,45,0.0,0.0,89,-99.99,,,-99.99,tws,2013-06-30 02:54:00,
2013-06-29 22:59:00,69.3,66.3,29.66,North,0,0.0,0.0,90,-99.99,,,-99.99,tws,2013-06-30 02:59:00,
2013-06-29 23:04:00,69.6,66.4,29.66,ENE,67,0.0,0.0,89,-99.99,,,-99.99,tws,2013-06-30 03:04:00,
2013-06-29 23:09:00,69.3,66.5,29.66,NE,45,0.0,0.0,90,-99.99,,,-99.99,tws,2013-06-30 03:09:00,
2013-06-29 23:14:00,68.9,66.3,29.66,NE,45,0.0,0.0,91,-99.99,,,-99.99,tws,2013-06-30 03:14:00,
2013-06-29 23:19:00,69.7,66.7,29.67,SE,135,0.0,0.0,90,-99.99,,,-99.99,tws,2013-06-30 03:19:00,
2013-06-29 23:24:00,70.2,67.0,29.66,SSE,157,0.0,0.0,89,-99.99,,,-99.99,tws,2013-06-30 03:24:00,
2013-06-29 23:29:00,70.1,67.1,29.66,SE,135,3.0,3.0,90,-99.99,,,-99.99,tws,2013-06-30 03:29:00,
2013-06-29 23:34:00,70.1,67.1,29.66,SSE,157,1.4,1.4,90,-99.99,,,-99.99,tws,2013-06-30 03:34:00,
2013-06-29 23:39:00,69.2,66.9,29.66,ESE,112,7.9,7.9,92,-99.99,,,-99.99,tws,2013-06-30 03:39:00,
2013-06-29 23:44:00,69.2,67.0,29.66,East,90,5.5,5.5,92,-99.99,,,-99.99,tws,2013-06-30 03:44:00,
2013-06-29 23:49:00,68.7,66.8,29.66,ESE,112,2.1,2.1,93,-99.99,,,-99.99,tws,2013-06-30 03:49:00,
2013-06-29 23:54:00,68.4,66.8,29.66,NE,45,0.3,0.3,94,-99.99,,,-99.99,tws,2013-06-30 03:54:00,
2013-06-29 23:59:00,67.8,66.7,29.66,NE,45,0.1,0.1,96,-99.99,,,-99.99,tws,2013-06-30 03:59:00,